Time,TemperatureF,DewpointF,PressureIn,WindDirection,WindDirectionDegrees,WindSpeedMPH,WindSpeedGustMPH,Humidity,HourlyPrecipIn,Conditions,Clouds,dailyrainin,SoftwareType,DateUTC
2013-04-01 00:02:00,30.0,16.0,-100.00,SSW,205,11.0,19.0,55,-99.99,,,-99.99,,2013-04-01 05:02:00,
2013-04-01 00:12:00,30.0,16.0,-100.00,SSW,205,11.0,19.0,55,-99.99,,,-99.99,,2013-04-01 05:12:00,
2013-04-01 00:43:00,29.0,14.0,-100.00,SSW,210,7.0,16.0,54,-99.99,,,-99.99,,2013-04-01 05:43:00,
2013-04-01 00:53:00,29.0,14.0,-100.00,SSW,210,7.0,16.0,54,-99.99,,,-99.99,,2013-04-01 05:53:00,
2013-04-01 01:02:00,29.0,14.0,-100.00,SSW,210,7.0,16.0,54,-99.99,,,-99.99,,2013-04-01 06:02:00,
2013-04-01 01:12:00,29.0,14.0,-100.00,SSW,210,7.0,16.0,54,-99.99,,,-99.99,,2013-04-01 06:12:00,
2013-04-01 01:43:00,28.0,14.0,-100.00,SSW,205,7.0,13.0,56,-99.99,,,-99.99,,2013-04-01 06:43:00,
2013-04-01 01:53:00,28.0,14.0,-100.00,SSW,205,7.0,13.0,56,-99.99,,,-99.99,,2013-04-01 06:53:00,
2013-04-01 02:02:00,28.0,14.0,-100.00,SSW,205,7.0,13.0,56,-99.99,,,-99.99,,2013-04-01 07:02:00,
2013-04-01 02:12:00,28.0,14.0,-100.00,SSW,205,7.0,13.0,56,-99.99,,,-99.99,,2013-04-01 07:12:00,
2013-04-01 02:43:00,26.0,14.0,-100.00,SSW,205,7.0,12.0,60,-99.99,,,-99.99,,2013-04-01 07:43:00,
2013-04-01 02:53:00,26.0,14.0,-100.00,SSW,205,7.0,12.0,60,-99.99,,,-99.99,,2013-04-01 07:53:00,
2013-04-01 03:03:00,26.0,14.0,-100.00,SSW,205,7.0,12.0,60,-99.99,,,-99.99,,2013-04-01 08:03:00,
2013-04-01 03:12:00,26.0,14.0,-100.00,SSW,205,7.0,12.0,60,-99.99,,,-99.99,,2013-04-01 08:12:00,
2013-04-01 03:43:00,26.0,13.0,-100.00,SSW,205,10.0,14.0,60,-99.99,,,-99.99,,2013-04-01 08:43:00,
2013-04-01 03:53:00,26.0,13.0,-100.00,SSW,205,10.0,14.0,60,-99.99,,,-99.99,,2013-04-01 08:53:00,
2013-04-01 04:02:00,26.0,13.0,-100.00,SSW,205,10.0,14.0,60,-99.99,,,-99.99,,2013-04-01 09:02:00,
2013-04-01 04:12:00,26.0,13.0,-100.00,SSW,205,10.0,14.0,60,-99.99,,,-99.99,,2013-04-01 09:12:00,
2013-04-01 04:43:00,24.0,12.0,-100.00,SSW,205,7.0,11.0,61,-99.99,,,-99.99,,2013-04-01 09:43:00,
2013-04-01 04:53:00,24.0,12.0,-100.00,SSW,205,7.0,11.0,61,-99.99,,,-99.99,,2013-04-01 09:53:00,
2013-04-01 05:03:00,24.0,12.0,-100.00,SSW,205,7.0,11.0,61,-99.99,,,-99.99,,2013-04-01 10:03:00,
2013-04-01 05:12:00,24.0,12.0,-100.00,SSW,205,7.0,11.0,61,-99.99,,,-99.99,,2013-04-01 10:12:00,
2013-04-01 05:43:00,23.0,13.0,-100.00,SSW,205,6.0,9.0,66,-99.99,,,-99.99,,2013-04-01 10:43:00,
2013-04-01 05:53:00,23.0,13.0,-100.00,SSW,205,6.0,9.0,66,-99.99,,,-99.99,,2013-04-01 10:53:00,
2013-04-01 06:03:00,23.0,13.0,-100.00,SSW,205,6.0,9.0,66,-99.99,,,-99.99,,2013-04-01 11:03:00,
2013-04-01 06:13:00,23.0,13.0,-100.00,SSW,205,6.0,9.0,66,-99.99,,,-99.99,,2013-04-01 11:13:00,
2013-04-01 06:43:00,22.0,13.0,-100.00,SSW,205,6.0,10.0,68,-99.99,,,-99.99,,2013-04-01 11:43:00,
2013-04-01 06:53:00,22.0,13.0,-100.00,SSW,205,6.0,10.0,68,-99.99,,,-99.99,,2013-04-01 11:53:00,
2013-04-01 07:02:00,22.0,13.0,-100.00,SSW,205,6.0,10.0,68,-99.99,,,-99.99,,2013-04-01 12:02:00,
2013-04-01 07:12:00,22.0,13.0,-100.00,SSW,205,6.0,10.0,68,-99.99,,,-99.99,,2013-04-01 12:12:00,
2013-04-01 07:43:00,22.0,14.0,-100.00,SSW,200,7.0,12.0,72,-99.99,,,-99.99,,2013-04-01 12:43:00,
2013-04-01 07:53:00,22.0,14.0,-100.00,SSW,200,7.0,12.0,72,-99.99,,,-99.99,,2013-04-01 12:53:00,
2013-04-01 08:03:00,22.0,14.0,-100.00,SSW,200,7.0,12.0,72,-99.99,,,-99.99,,2013-04-01 13:03:00,
2013-04-01 08:12:00,22.0,14.0,-100.00,SSW,200,7.0,12.0,72,-99.99,,,-99.99,,2013-04-01 13:12:00,
2013-04-01 08:43:00,23.0,16.0,-100.00,SSW,205,10.0,14.0,74,-99.99,,,-99.99,,2013-04-01 13:43:00,
2013-04-01 08:53:00,23.0,16.0,-100.00,SSW,205,10.0,14.0,74,-99.99,,,-99.99,,2013-04-01 13:53:00,
2013-04-01 09:03:00,23.0,16.0,-100.00,SSW,205,10.0,14.0,74,-99.99,,,-99.99,,2013-04-01 14:03:00,
2013-04-01 09:12:00,23.0,16.0,-100.00,SSW,205,10.0,14.0,74,-99.99,,,-99.99,,2013-04-01 14:12:00,
2013-04-01 09:43:00,25.0,15.0,-100.00,SSW,205,13.0,17.0,68,-99.99,,,-99.99,,2013-04-01 14:43:00,
2013-04-01 09:53:00,25.0,15.0,-100.00,SSW,205,13.0,17.0,68,-99.99,,,-99.99,,2013-04-01 14:53:00,
2013-04-01 10:03:00,25.0,15.0,-100.00,SSW,205,13.0,17.0,68,-99.99,,,-99.99,,2013-04-01 15:03:00,
2013-04-01 10:13:00,25.0,15.0,-100.00,SSW,205,13.0,17.0,68,-99.99,,,-99.99,,2013-04-01 15:13:00,
2013-04-01 10:43:00,26.0,15.0,-100.00,SSW,210,12.0,19.0,63,-99.99,,,-99.99,,2013-04-01 15:43:00,
2013-04-01 10:54:00,26.0,15.0,-100.00,SSW,210,12.0,19.0,63,-99.99,,,-99.99,,2013-04-01 15:54:00,
2013-04-01 11:03:00,26.0,15.0,-100.00,SSW,210,12.0,19.0,63,-99.99,,,-99.99,,2013-04-01 16:03:00,
2013-04-01 11:13:00,26.0,15.0,-100.00,SSW,210,12.0,19.0,63,-99.99,,,-99.99,,2013-04-01 16:13:00,
2013-04-01 11:43:00,28.0,15.0,-100.00,SSW,210,11.0,21.0,58,-99.99,,,-99.99,,2013-04-01 16:43:00,
2013-04-01 11:53:00,28.0,15.0,-100.00,SSW,210,11.0,21.0,58,-99.99,,,-99.99,,2013-04-01 16:53:00,
2013-04-01 12:03:00,28.0,15.0,-100.00,SSW,210,11.0,21.0,58,-99.99,,,-99.99,,2013-04-01 17:03:00,
2013-04-01 12:12:00,28.0,15.0,-100.00,SSW,210,11.0,21.0,58,-99.99,,,-99.99,,2013-04-01 17:12:00,
2013-04-01 12:42:00,29.0,15.0,-100.00,North,-999,-999.0,-999.0,55,-99.99,,,-99.99,,2013-04-01 17:42:00,
2013-04-01 12:53:00,29.0,15.0,-100.00,North,-999,-999.0,-999.0,55,-99.99,,,-99.99,,2013-04-01 17:53:00,
2013-04-01 13:02:00,29.0,15.0,-100.00,North,-999,-999.0,-999.0,55,-99.99,,,-99.99,,2013-04-01 18:02:00,
2013-04-01 13:12:00,29.0,15.0,-100.00,North,-999,-999.0,-999.0,55,-99.99,,,-99.99,,2013-04-01 18:12:00,
2013-04-01 13:43:00,30.0,14.0,-100.00,SSW,210,12.0,22.0,52,-99.99,,,-99.99,,2013-04-01 18:43:00,
2013-04-01 13:53:00,30.0,14.0,-100.00,SSW,210,12.0,22.0,52,-99.99,,,-99.99,,2013-04-01 18:53:00,
2013-04-01 14:03:00,30.0,14.0,-100.00,SSW,210,12.0,22.0,52,-99.99,,,-99.99,,2013-04-01 19:03:00,
2013-04-01 14:12:00,30.0,14.0,-100.00,SSW,210,12.0,22.0,52,-99.99,,,-99.99,,2013-04-01 19:12:00,
2013-04-01 14:43:00,32.0,15.0,-100.00,SE,145,10.0,18.0,50,-99.99,,,-99.99,,2013-04-01 19:43:00,
2013-04-01 14:53:00,32.0,15.0,-100.00,SE,145,10.0,18.0,50,-99.99,,,-99.99,,2013-04-01 19:53:00,
2013-04-01 15:02:00,32.0,15.0,-100.00,SE,145,10.0,18.0,50,-99.99,,,-99.99,,2013-04-01 20:02:00,
2013-04-01 15:12:00,32.0,15.0,-100.00,SE,145,10.0,18.0,50,-99.99,,,-99.99,,2013-04-01 20:12:00,
2013-04-01 15:43:00,32.0,15.0,-100.00,SW,215,12.0,21.0,50,-99.99,,,-99.99,,2013-04-01 20:43:00,
2013-04-01 15:52:00,32.0,15.0,-100.00,SW,215,12.0,21.0,50,-99.99,,,-99.99,,2013-04-01 20:52:00,
2013-04-01 16:02:00,32.0,15.0,-100.00,SW,215,12.0,21.0,50,-99.99,,,-99.99,,2013-04-01 21:02:00,
2013-04-01 16:12:00,32.0,15.0,-100.00,SW,215,12.0,21.0,50,-99.99,,,-99.99,,2013-04-01 21:12:00,
2013-04-01 16:44:00,32.0,14.0,-100.00,SSW,210,12.0,19.0,49,-99.99,,,-99.99,,2013-04-01 21:44:00,
2013-04-01 16:53:00,32.0,14.0,-100.00,SSW,210,12.0,19.0,49,-99.99,,,-99.99,,2013-04-01 21:53:00,
2013-04-01 17:02:00,32.0,14.0,-100.00,SSW,210,12.0,19.0,49,-99.99,,,-99.99,,2013-04-01 22:02:00,
2013-04-01 17:12:00,32.0,14.0,-100.00,SSW,210,12.0,19.0,49,-99.99,,,-99.99,,2013-04-01 22:12:00,
2013-04-01 17:43:00,31.0,14.0,-100.00,SW,215,12.0,18.0,48,-99.99,,,-99.99,,2013-04-01 22:43:00,
2013-04-01 17:52:00,31.0,14.0,-100.00,SW,215,12.0,18.0,48,-99.99,,,-99.99,,2013-04-01 22:52:00,
2013-04-01 18:02:00,31.0,14.0,-100.00,SW,215,12.0,18.0,48,-99.99,,,-99.99,,2013-04-01 23:02:00,
2013-04-01 18:12:00,31.0,14.0,-100.00,SW,215,12.0,18.0,48,-99.99,,,-99.99,,2013-04-01 23:12:00,
2013-04-01 18:43:00,31.0,12.0,-100.00,SSW,210,10.0,16.0,46,-99.99,,,-99.99,,2013-04-01 23:43:00,
2013-04-01 18:53:00,31.0,12.0,-100.00,SSW,210,10.0,16.0,46,-99.99,,,-99.99,,2013-04-01 23:53:00,
2013-04-01 19:03:00,31.0,12.0,-100.00,SSW,210,10.0,16.0,46,-99.99,,,-99.99,,2013-04-02 00:03:00,
2013-04-01 19:12:00,31.0,12.0,-100.00,SSW,210,10.0,16.0,46,-99.99,,,-99.99,,2013-04-02 00:12:00,
2013-04-01 19:43:00,30.0,12.0,-100.00,West,265,12.0,20.0,47,-99.99,,,-99.99,,2013-04-02 00:43:00,
2013-04-01 19:53:00,30.0,12.0,-100.00,West,265,12.0,20.0,47,-99.99,,,-99.99,,2013-04-02 00:53:00,
2013-04-01 20:02:00,30.0,12.0,-100.00,West,265,12.0,20.0,47,-99.99,,,-99.99,,2013-04-02 01:02:00,
2013-04-01 20:12:00,30.0,12.0,-100.00,West,265,12.0,20.0,47,-99.99,,,-99.99,,2013-04-02 01:12:00,
2013-04-01 20:43:00,28.0,12.0,-100.00,SSW,205,7.0,12.0,50,-99.99,,,-99.99,,2013-04-02 01:43:00,
2013-04-01 20:53:00,28.0,12.0,-100.00,SSW,205,7.0,12.0,50,-99.99,,,-99.99,,2013-04-02 01:53:00,
2013-04-01 21:02:00,28.0,12.0,-100.00,SSW,205,7.0,12.0,50,-99.99,,,-99.99,,2013-04-02 02:02:00,
2013-04-01 21:12:00,28.0,12.0,-100.00,SSW,205,7.0,12.0,50,-99.99,,,-99.99,,2013-04-02 02:12:00,
2013-04-01 21:43:00,28.0,12.0,-100.00,SSW,205,7.0,12.0,52,-99.99,,,-99.99,,2013-04-02 02:43:00,
2013-04-01 21:53:00,28.0,12.0,-100.00,SSW,205,7.0,12.0,52,-99.99,,,-99.99,,2013-04-02 02:53:00,
2013-04-01 22:02:00,28.0,12.0,-100.00,SSW,205,7.0,12.0,52,-99.99,,,-99.99,,2013-04-02 03:02:00,
2013-04-01 22:12:00,28.0,12.0,-100.00,SSW,205,7.0,12.0,52,-99.99,,,-99.99,,2013-04-02 03:12:00,
2013-04-01 22:43:00,27.0,13.0,-100.00,SSW,205,7.0,10.0,54,-99.99,,,-99.99,,2013-04-02 03:43:00,
2013-04-01 22:53:00,27.0,13.0,-100.00,SSW,205,7.0,10.0,54,-99.99,,,-99.99,,2013-04-02 03:53:00,
2013-04-01 23:03:00,27.0,13.0,-100.00,SSW,205,7.0,10.0,54,-99.99,,,-99.99,,2013-04-02 04:03:00,
2013-04-01 23:13:00,27.0,13.0,-100.00,SSW,205,7.0,10.0,54,-99.99,,,-99.99,,2013-04-02 04:13:00,
2013-04-01 23:43:00,27.0,13.0,-100.00,SSW,205,7.0,12.0,56,-99.99,,,-99.99,,2013-04-02 04:43:00,
2013-04-01 23:53:00,27.0,13.0,-100.00,SSW,205,7.0,12.0,56,-99.99,,,-99.99,,2013-04-02 04:53:00,